| time (UTC) | temp F | wind direction | speed knots | gust knots | rain 1hr in | rain 24hr in | rain mn in | humidity % | barometer mb |
| 20260504045904 | 77 | 216 | 2.6 | 8.7 | 0.00 | 0.00 | 0.00 | 27 | 1012.3 |
| 20260504045404 | 77 | 209 | 3.5 | 7.8 | 0.00 | 0.00 | 0.00 | 27 | 1012.4 |
| 20260504044403 | 77 | 216 | 2.6 | 7.8 | 0.00 | 0.00 | 0.00 | 27 | 1012.3 |
| 20260504042904 | 78 | 210 | 4.3 | 10.4 | 0.00 | 0.00 | 0.00 | 26 | 1012.2 |
| 20260504042405 | 78 | 216 | 2.6 | 7.8 | 0.00 | 0.00 | 0.00 | 25 | 1012.1 |
| 20260504041904 | 78 | 202 | 3.5 | 13.9 | 0.00 | 0.00 | 0.00 | 24 | 1012.0 |
| 20260504041403 | 78 | 211 | 4.3 | 13.9 | 0.00 | 0.00 | 0.00 | 24 | 1012.2 |
| 20260504040903 | 78 | 218 | 4.3 | 13.9 | 0.00 | 0.00 | 0.00 | 24 | 1012.1 |
| 20260504035904 | 78 | 216 | 5.2 | 11.3 | 0.00 | 0.00 | 0.00 | 23 | 1011.7 |
| 20260504035403 | 79 | 219 | 5.2 | 12.2 | 0.00 | 0.00 | 0.00 | 22 | 1011.6 |
| 20260504034904 | 79 | 219 | 4.3 | 12.2 | 0.00 | 0.00 | 0.00 | 22 | 1011.3 |
| 20260504034403 | 79 | 216 | 5.2 | 14.8 | 0.00 | 0.00 | 0.00 | 21 | 1011.4 |
| 20260504033904 | 79 | 201 | 4.3 | 14.8 | 0.00 | 0.00 | 0.00 | 20 | 1011.1 |
| 20260504033404 | 79 | 221 | 5.2 | 13.9 | 0.00 | 0.00 | 0.00 | 19 | 1010.9 |
| 20260504032904 | 80 | 216 | 5.2 | 10.4 | 0.00 | 0.00 | 0.00 | 19 | 1010.9 |
| 20260504031404 | 80 | 172 | 3.5 | 8.7 | 0.00 | 0.00 | 0.00 | 18 | 1010.8 |
| 20260504030404 | 81 | 198 | 2.6 | 10.4 | 0.00 | 0.00 | 0.00 | 17 | 1010.5 |
| 20260504025904 | 81 | 206 | 4.3 | 10.4 | 0.00 | 0.00 | 0.00 | 17 | 1010.4 |
| 20260504025404 | 81 | 196 | 4.3 | 8.7 | 0.00 | 0.00 | 0.00 | 16 | 1010.2 |
| 20260504024904 | 81 | 214 | 2.6 | 7.8 | 0.00 | 0.00 | 0.00 | 16 | 1010.1 |
| 20260504024405 | 82 | 227 | 2.6 | 11.3 | 0.00 | 0.00 | 0.00 | 15 | 1010.0 |
| 20260504023904 | 82 | 225 | 1.7 | 11.3 | 0.00 | 0.00 | 0.00 | 15 | 1009.9 |
| 20260504023404 | 82 | 235 | 3.5 | 11.3 | 0.00 | 0.00 | 0.00 | 15 | 1009.7 |
| 20260504022904 | 82 | 216 | 5.2 | 10.4 | 0.00 | 0.00 | 0.00 | 14 | 1009.7 |
| 20260504022404 | 83 | 236 | 2.6 | 8.7 | 0.00 | 0.00 | 0.00 | 14 | 1009.6 |
| 20260504021904 | 83 | 214 | 1.7 | 7.0 | 0.00 | 0.00 | 0.00 | 14 | 1009.5 |
| 20260504021403 | 83 | 227 | 2.6 | 7.0 | 0.00 | 0.00 | 0.00 | 14 | 1009.5 |
| 20260504020904 | 83 | 215 | 3.5 | 7.8 | 0.00 | 0.00 | 0.00 | 13 | 1009.5 |
| 20260504015904 | 84 | 241 | 4.3 | 10.4 | 0.00 | 0.00 | 0.00 | 13 | 1009.3 |
| 20260504015404 | 84 | 231 | 1.7 | 10.4 | 0.00 | 0.00 | 0.00 | 13 | 1009.2 |
| 20260504014903 | 84 | 224 | 3.5 | 12.2 | 0.00 | 0.00 | 0.00 | 12 | 1009.1 |
| 20260504014403 | 85 | 238 | 5.2 | 12.2 | 0.00 | 0.00 | 0.00 | 12 | 1009.0 |
| 20260504013904 | 85 | 222 | 4.3 | 10.4 | 0.00 | 0.00 | 0.00 | 12 | 1009.1 |
| 20260504013405 | 85 | 223 | 1.7 | 7.8 | 0.00 | 0.00 | 0.00 | 12 | 1009.1 |
| 20260504012904 | 86 | 231 | 2.6 | 12.2 | 0.00 | 0.00 | 0.00 | 12 | 1008.9 |
| 20260504012404 | 86 | 226 | 5.2 | 12.2 | 0.00 | 0.00 | 0.00 | 12 | 1008.8 |
| 20260504011904 | 86 | 230 | 5.2 | 11.3 | 0.00 | 0.00 | 0.00 | 11 | 1008.6 |
| 20260504011403 | 86 | 238 | 5.2 | 13.0 | 0.00 | 0.00 | 0.00 | 11 | 1008.8 |
| 20260504010404 | 87 | 222 | 5.2 | 13.0 | 0.00 | 0.00 | 0.00 | 11 | 1009.2 |
| 20260504005904 | 87 | 222 | 5.2 | 13.9 | 0.00 | 0.00 | 0.00 | 11 | 1009.1 |
| 20260504004403 | 88 | 233 | 4.3 | 13.0 | 0.00 | 0.00 | 0.00 | 11 | 1009.1 |
| 20260504003404 | 89 | 220 | 4.3 | 10.4 | 0.00 | 0.00 | 0.00 | 11 | 1009.1 |
| 20260504002404 | 89 | 235 | 6.1 | 12.2 | 0.00 | 0.00 | 0.00 | 11 | 1009.1 |
| 20260504001905 | 89 | 225 | 6.1 | 12.2 | 0.00 | 0.00 | 0.00 | 10 | 1009.0 |
| 20260504001404 | 89 | 226 | 7.0 | 15.6 | 0.00 | 0.00 | 0.00 | 10 | 1009.0 |
| 20260504000904 | 89 | 230 | 7.8 | 15.6 | 0.00 | 0.00 | 0.00 | 10 | 1009.0 |
| 20260504000404 | 89 | 229 | 6.1 | 14.8 | 0.00 | 0.00 | 0.00 | 9 | 1008.9 |
| 20260503235904 | 90 | 228 | 7.0 | 14.8 | 0.00 | 0.00 | 0.00 | 9 | 1009.0 |
| 20260503235404 | 90 | 210 | 4.3 | 15.6 | 0.00 | 0.00 | 0.00 | 9 | 1009.0 |
| 20260503234904 | 90 | 238 | 7.8 | 15.6 | 0.00 | 0.00 | 0.00 | 10 | 1009.0 |
| 20260503234404 | 90 | 240 | 7.8 | 15.6 | 0.00 | 0.00 | 0.00 | 10 | 1009.0 |
| 20260503233904 | 90 | 234 | 6.1 | 12.2 | 0.00 | 0.00 | 0.00 | 10 | 1008.9 |
| 20260503232404 | 91 | 223 | 6.1 | 17.4 | 0.00 | 0.00 | 0.00 | 10 | 1008.8 |
| 20260503231904 | 91 | 221 | 6.1 | 17.4 | 0.00 | 0.00 | 0.00 | 10 | 1008.8 |
| 20260503231403 | 92 | 225 | 7.8 | 14.8 | 0.00 | 0.00 | 0.00 | 10 | 1008.8 |
| 20260503225904 | 92 | 237 | 5.2 | 13.0 | 0.00 | 0.00 | 0.00 | 10 | 1008.8 |
| 20260503225404 | 92 | 230 | 4.3 | 12.2 | 0.00 | 0.00 | 0.00 | 10 | 1008.7 |
| 20260503224904 | 92 | 225 | 3.5 | 14.8 | 0.00 | 0.00 | 0.00 | 11 | 1008.9 |
| 20260503224403 | 92 | 248 | 5.2 | 14.8 | 0.00 | 0.00 | 0.00 | 11 | 1009.0 |
| 20260503223903 | 92 | 222 | 7.0 | 14.8 | 0.00 | 0.00 | 0.00 | 11 | 1009.0 |
| 20260503223404 | 92 | 234 | 7.0 | 14.8 | 0.00 | 0.00 | 0.00 | 11 | 1009.1 |
| 20260503222404 | 93 | 211 | 4.3 | 10.4 | 0.00 | 0.00 | 0.00 | 11 | 1009.0 |
| 20260503221403 | 92 | 199 | 1.7 | 7.8 | 0.00 | 0.00 | 0.00 | 13 | 1009.1 |
| 20260503220903 | 92 | 228 | 1.7 | 12.2 | 0.00 | 0.00 | 0.00 | 14 | 1009.2 |
| 20260503220403 | 91 | 199 | 4.3 | 12.2 | 0.00 | 0.00 | 0.00 | 13 | 1009.2 |
| 20260503215903 | 91 | 169 | 1.7 | 7.8 | 0.00 | 0.00 | 0.00 | 17 | 1009.3 |
| 20260503215404 | 91 | 43 | 1.7 | 8.7 | 0.00 | 0.00 | 0.00 | 18 | 1009.2 |
| 20260503214904 | 91 | 101 | 2.6 | 8.7 | 0.00 | 0.00 | 0.00 | 19 | 1009.3 |
| 20260503214403 | 91 | 175 | 2.6 | 7.8 | 0.00 | 0.00 | 0.00 | 19 | 1009.3 |
| 20260503213903 | 92 | 155 | 2.6 | 10.4 | 0.00 | 0.00 | 0.00 | 18 | 1009.5 |
| 20260503213404 | 91 | 113 | 2.6 | 10.4 | 0.00 | 0.00 | 0.00 | 18 | 1009.6 |
| 20260503212903 | 91 | 110 | 2.6 | 10.4 | 0.00 | 0.00 | 0.00 | 19 | 1009.8 |
| 20260503212403 | 91 | 99 | 4.3 | 10.4 | 0.00 | 0.00 | 0.00 | 19 | 1009.8 |
| 20260503211404 | 89 | 110 | 2.6 | 7.0 | 0.00 | 0.00 | 0.00 | 21 | 1010.2 |
| 20260503210904 | 88 | 127 | 1.7 | 7.8 | 0.00 | 0.00 | 0.00 | 21 | 1010.3 |
| 20260503210403 | 88 | 138 | 2.6 | 7.8 | 0.00 | 0.00 | 0.00 | 21 | 1010.3 |
| 20260503205904 | 88 | 95 | 2.6 | 7.0 | 0.00 | 0.00 | 0.00 | 22 | 1010.5 |
| 20260503204904 | 88 | 214 | 2.6 | 11.3 | 0.00 | 0.00 | 0.00 | 22 | 1010.6 |
| 20260503204404 | 87 | 157 | 1.7 | 11.3 | 0.00 | 0.00 | 0.00 | 21 | 1010.5 |
| 20260503203904 | 88 | 187 | 3.5 | 11.3 | 0.00 | 0.00 | 0.00 | 21 | 1010.6 |
| 20260503203404 | 88 | 126 | 4.3 | 8.7 | 0.00 | 0.00 | 0.00 | 21 | 1010.6 |
| 20260503201903 | 87 | 204 | 4.3 | 7.8 | 0.00 | 0.00 | 0.00 | 21 | 1010.8 |
| 20260503200904 | 86 | 169 | 2.6 | 6.1 | 0.00 | 0.00 | 0.00 | 23 | 1011.0 |
| 20260503195904 | 86 | 181 | 1.7 | 10.4 | 0.00 | 0.00 | 0.00 | 23 | 1011.3 |
| 20260503194904 | 86 | 97 | 2.6 | 7.8 | 0.00 | 0.00 | 0.00 | 24 | 1011.4 |
| 20260503194404 | 86 | 99 | 2.6 | 7.8 | 0.00 | 0.00 | 0.00 | 25 | 1011.6 |
| 20260503193904 | 85 | 147 | 1.7 | 8.7 | 0.00 | 0.00 | 0.00 | 25 | 1011.6 |
| 20260503193404 | 85 | 103 | 2.6 | 8.7 | 0.00 | 0.00 | 0.00 | 26 | 1011.7 |
| 20260503192903 | 85 | 223 | 3.5 | 7.8 | 0.00 | 0.00 | 0.00 | 25 | 1011.8 |
| 20260503192404 | 85 | 163 | 1.7 | 7.0 | 0.00 | 0.00 | 0.00 | 25 | 1011.9 |
| 20260503191903 | 85 | 184 | 2.6 | 7.8 | 0.00 | 0.00 | 0.00 | 27 | 1011.9 |
| 20260503191404 | 84 | 116 | 2.6 | 8.7 | 0.00 | 0.00 | 0.00 | 28 | 1012.0 |
| 20260503190904 | 84 | 106 | 1.7 | 8.7 | 0.00 | 0.00 | 0.00 | 28 | 1011.9 |
| 20260503190403 | 84 | 105 | 2.6 | 7.8 | 0.00 | 0.00 | 0.00 | 28 | 1012.0 |
| 20260503185904 | 84 | 127 | 1.7 | 7.0 | 0.00 | 0.00 | 0.00 | 28 | 1012.1 |
| 20260503185404 | 83 | 102 | 1.7 | 7.0 | 0.00 | 0.00 | 0.00 | 28 | 1012.1 |
| 20260503184904 | 83 | 125 | 2.6 | 7.0 | 0.00 | 0.00 | 0.00 | 28 | 1012.2 |
| 20260503184404 | 83 | 118 | 2.6 | 10.4 | 0.00 | 0.00 | 0.00 | 28 | 1012.3 |
| 20260503183904 | 83 | 134 | 2.6 | 10.4 | 0.00 | 0.00 | 0.00 | 28 | 1012.3 |
| 20260503183403 | 83 | 166 | 2.6 | 10.4 | 0.00 | 0.00 | 0.00 | 28 | 1012.4 |
| 20260503182904 | 83 | 116 | 2.6 | 7.8 | 0.00 | 0.00 | 0.00 | 28 | 1012.5 |
| 20260503182403 | 82 | 119 | 2.6 | 8.7 | 0.00 | 0.00 | 0.00 | 28 | 1012.5 |
| 20260503181903 | 83 | 94 | 2.6 | 8.7 | 0.00 | 0.00 | 0.00 | 28 | 1012.6 |
| 20260503181404 | 82 | 116 | 1.7 | 10.4 | 0.00 | 0.00 | 0.00 | 28 | 1012.7 |
| 20260503180904 | 82 | 120 | 2.6 | 10.4 | 0.00 | 0.00 | 0.00 | 28 | 1012.7 |
| 20260503180403 | 82 | 129 | 1.7 | 6.1 | 0.00 | 0.00 | 0.00 | 28 | 1012.7 |
| 20260503175903 | 82 | 190 | 1.7 | 6.1 | 0.00 | 0.00 | 0.00 | 28 | 1013.0 |
| 20260503175403 | 82 | 162 | 1.7 | 8.7 | 0.00 | 0.00 | 0.00 | 29 | 1013.1 |
| 20260503174404 | 82 | 108 | 4.3 | 8.7 | 0.00 | 0.00 | 0.00 | 28 | 1013.2 |
| 20260503173904 | 82 | 88 | 0.9 | 7.8 | 0.00 | 0.00 | 0.00 | 29 | 1013.3 |
| 20260503173404 | 82 | 153 | 2.6 | 7.8 | 0.00 | 0.00 | 0.00 | 29 | 1013.4 |
| 20260503172904 | 82 | 104 | 1.7 | 7.8 | 0.00 | 0.00 | 0.00 | 29 | 1013.4 |
| 20260503172404 | 81 | 175 | 3.5 | 7.8 | 0.00 | 0.00 | 0.00 | 29 | 1013.3 |
| 20260503171403 | 81 | 165 | 3.5 | 7.8 | 0.00 | 0.00 | 0.00 | 29 | 1013.4 |
| 20260503170903 | 82 | 71 | 2.6 | 7.8 | 0.00 | 0.00 | 0.00 | 29 | 1013.7 |
| 20260503170403 | 82 | 141 | 2.6 | 7.8 | 0.00 | 0.00 | 0.00 | 29 | 1013.6 |
| 20260503150904 | 77 | 111 | 0.9 | 6.1 | 0.00 | 0.00 | 0.00 | 34 | 1013.4 |
| 20260503150403 | 76 | 189 | 1.7 | 6.1 | 0.00 | 0.00 | 0.00 | 34 | 1013.6 |
| 20260503131403 | 73 | 150 | 0.9 | 2.6 | 0.00 | 0.00 | 0.00 | 36 | 1012.8 |
| 20260503130904 | 73 | 107 | 0.0 | 2.6 | 0.00 | 0.00 | 0.00 | 36 | 1012.8 |
| 20260503130403 | 73 | 181 | 0.9 | 2.6 | 0.00 | 0.00 | 0.00 | 36 | 1012.9 |
| 20260503110404 | 75 | 136 | 1.7 | 5.2 | 0.00 | 0.00 | 0.00 | 34 | 1012.4 |
| 20260503090404 | 76 | 127 | 1.7 | 7.8 | 0.00 | 0.00 | 0.00 | 31 | 1012.2 |
| 20260503081404 | 77 | 190 | 0.9 | 6.1 | 0.00 | 0.00 | 0.00 | 30 | 1012.3 |
| 20260503080903 | 77 | 114 | 1.7 | 6.1 | 0.00 | 0.00 | 0.00 | 30 | 1012.4 |
| 20260503080403 | 77 | 152 | 0.9 | 7.0 | 0.00 | 0.00 | 0.00 | 30 | 1012.5 |
| 20260503072404 | 78 | 208 | 1.7 | 5.2 | 0.00 | 0.00 | 0.00 | 29 | 1012.4 |
| 20260503071903 | 78 | 108 | 1.7 | 7.0 | 0.00 | 0.00 | 0.00 | 29 | 1012.5 |
| 20260503071403 | 78 | 107 | 1.7 | 7.0 | 0.00 | 0.00 | 0.00 | 29 | 1012.6 |
| 20260503070904 | 78 | 158 | 1.7 | 5.2 | 0.00 | 0.00 | 0.00 | 29 | 1012.6 |
| 20260503070403 | 78 | 198 | 1.7 | 7.8 | 0.00 | 0.00 | 0.00 | 29 | 1012.6 |
| 20260503054903 | 80 | 121 | 0.9 | 5.2 | 0.00 | 0.00 | 0.00 | 26 | 1011.8 |
| 20260503054404 | 80 | 124 | 1.7 | 5.2 | 0.00 | 0.00 | 0.00 | 26 | 1011.7 |
| 20260503053404 | 80 | 111 | 1.7 | 6.1 | 0.00 | 0.00 | 0.00 | 25 | 1011.7 |
| 20260503052903 | 81 | 130 | 2.6 | 7.0 | 0.00 | 0.00 | 0.00 | 25 | 1011.7 |
| 20260503052404 | 81 | 106 | 1.7 | 7.0 | 0.00 | 0.00 | 0.00 | 25 | 1011.7 |